NOAA 16 DEB, 41520

Orbit data source: Space-Track

NOAA 16 DEB, 41520 is space debris in SSO originally from a launch on Thu, 21 Sep 2000 UTC launched from the Air Force Western Test Range (AFWTR). Debris objects in space refer to the collection of defunct objects orbiting the Earth. Examples of debris include non-operational satellites, rocket bodies, and fragments generated from explosions, collisions, or faulty payload assembly.

Loading next visibility...
Identifier
41520, 2000-055MU
Orbit
SSO
Country
Flag of USUS
Related business
Manufacturer
Unknown
Mission
Spacecraft
Bus & Motor
Unknown
Mass
Unknown
Launch date (UTC)
2000-09-21 (25 years ago)
Launch vehicle
Unknown
Launch site
Air Force Western Test Range (AFWTR)
Object type
Payload
Rocket body
Debris
Shape & HBR
Unknown shape, 0.1 m
Radar Cross Section
Small (<0.1 m²)

Expand to show TLE details & history
Last TLE update: 1 day ago

TLE from 1 day ago
0 NOAA 16 DEB
1 41520U 00055MU  26033.33576054  .00038525  00000-0  61849-2 0  9992
2 41520  98.8640 173.8755 0018931  12.2801 347.8861 14.71370037506899
Epoch: 2026-02-02T08:03Z
TLE epoch observation values (Epoch: 2026-02-02T08:03:29.710Z)
Latitude
-0.00002°
Longitude
-79.53081°
Altitude
646.654 km
Speed
7.541 km/s
True Right ascension
11h 35m 30s
True Declination
0° 00' 00"
Sunlit
Object was in full shadow at epoch
Visualization orbit readout
Latitude
Unknown
Longitude
Unknown
Altitude
Unknown
Speed
Unknown
Apparent Right ascension
Unknown
Apparent Declination
Unknown
Sunlit
N/A
Visualization observer readout
Local Sidereal Time
16:48:33
Azimuth
Unknown
Elevation
Unknown
Doppler factor
Unknown
Orbital elements
Apogee altitude
667.108 km
Perigee altitude
640.484 km
Semi-major axis
7,031.933 km
Eccentricity
0.00189
Inclination
98.864°
RAAN
173.8755°
Arg. of periapsis
12.2801°
True anomaly
347.84047°
Mean anomaly
347.8861°
Eccentric anomaly
347.8633°
Mean motion
3.68071 °/min
Orbital period
97.81 mins
BSTAR
0.0061849
Loading maneuver chart data...
Computing Atmospheric mass density...
Loading historical data...
Loading historical data...
Loading historical data...
Loading historical data...
Loading historical data...
Loading historical data...
Loading historical data...

Documentation

Showing up to 5 results
|